Location: Home
(42.5358°N, 72.7383°W)
Time: 22:13:38
(UTC-05:00)

Explorer 11/Cluster Stage 4 - Visible Passes

Search period start: 14 December 2025 00:00
Search period end: 24 December 2025 00:00
Orbit: 463 x 1181 km, 28.8° (Epoch: 14 December)

Date Brightness Start Highest point End Pass type
(mag) Time Alt. Az. Time Alt. Az. Time Alt. Az.
14 Dec 9.0 17:42:24 10° SSW 17:47:23 19° SSE 17:52:05 10° ESE visible
14 Dec 8.7 19:28:56 10° SW 19:33:35 24° SSW 19:33:35 24° SSW visible
15 Dec 9.1 17:18:15 10° SSW 17:23:28 20° SSE 17:28:26 10° ESE visible
15 Dec 8.5 19:04:49 10° SW 19:10:44 26° S 19:11:20 25° S visible
16 Dec 9.1 16:54:10 10° SSW 16:59:32 20° SSE 17:04:43 10° ESE visible
16 Dec 8.5 18:40:42 10° SW 18:46:50 27° S 18:49:05 23° SSE visible
16 Dec 9.4 20:28:46 10° WSW 20:30:22 15° SW 20:30:22 15° SW visible
17 Dec 8.7 18:16:37 10° SW 18:22:54 27° S 18:26:51 17° SE visible
17 Dec 9.1 20:04:39 10° WSW 20:08:08 20° SW 20:08:08 20° SW visible
18 Dec 8.8 17:52:35 10° SW 17:58:57 28° S 18:04:40 11° SE visible
18 Dec 8.8 19:40:32 10° WSW 19:45:56 23° SSW 19:45:56 23° SSW visible
19 Dec 8.8 17:28:34 10° SW 17:34:58 28° S 17:41:11 10° ESE visible
19 Dec 8.8 19:16:28 10° WSW 19:22:17 24° SSW 19:23:47 22° S visible
20 Dec 8.9 17:04:36 10° SW 17:10:59 28° S 17:17:19 10° ESE visible
20 Dec 8.9 18:52:25 10° WSW 18:58:19 24° SSW 19:01:42 17° SSE visible
20 Dec 9.8 20:42:51 10° SW 20:42:59 10° SW 20:42:59 10° SW visible
21 Dec 9.0 16:40:42 10° SW 16:46:59 28° S 16:53:23 10° ESE visible
21 Dec 9.0 18:28:24 10° WSW 18:34:21 24° SSW 18:39:43 11° SE visible
21 Dec 9.6 20:18:42 10° SW 20:21:00 12° SSW 20:21:00 12° SSW visible
22 Dec 9.1 18:04:27 10° WSW 18:10:21 24° SSW 18:16:12 10° SE visible
22 Dec 9.5 19:54:36 10° SW 19:57:23 12° SSW 19:59:07 11° SSW visible
23 Dec 9.2 17:40:32 10° WSW 17:46:22 24° SSW 17:52:14 10° SE visible
23 Dec 9.6 19:30:36 10° SW 19:33:25 12° SSW 19:36:12 10° S visible
